Weather History for Reading, PA

Change the Weather History Date:

Tuesday, June 17, 2014

  Actual Average Record
Temperature  
Mean Temperature 81 °F 71 °F  
Max Temperature 92 °F 82 °F 97 °F (1957)
Min Temperature 69 °F 61 °F 44 °F (1980)
Degree Days  
Heating Degree Days 0 1  
Month to date heating degree days 1 23  
Since 1 June heating degree days 1 23  
Since 1 July heating degree days 5745 5391  
Cooling Degree Days 16 7  
Month to date cooling degree days 96 85  
Year to date cooling degree days 158 145  
Since 1 June cooling degree days 96 85  
Growing Degree Days 30 (Base 50)    
Moisture  
Dew Point 68 °F    
Average Humidity 66    
Maximum Humidity 90    
Minimum Humidity 41    
Precipitation  
Precipitation T in 0.14 in 2.26 in (1922)
Month to date precipitation 2.74 2.36  
Year to date precipitation 21.56 19.38  
Sea Level Pressure  
Sea Level Pressure 30.02 in    
Wind  
Wind Speed 5 mph (SW)    
Max Wind Speed 14 mph    
Max Gust Speed 19 mph    
Visibility 8 miles    
Events Rain    
T = Trace of Precipitation, MM = Missing Value Source: NWS Daily Summary

Daily Weather History Graph

Daily Weather History Graph

Search for Another Location

Airport:

Trip Planner

Search our weather history database for the weather conditions in past years. The results will help you decide how hot, cold, wet, or windy it might be!

Date:

Astronomy

Jun. 17, 2014 Rise Set
Actual Time 5:33 AM EDT 8:36 PM EDT
Civil Twilight 5:00 AM EDT 9:09 PM EDT
Nautical Twilight 4:18 AM EDT 9:51 PM EDT
Astronomical Twilight 3:28 AM EDT 10:41 PM EDT
Moon No Moon Rise 10:45 AM EDT (6/17)
Length of Visible Light 16h 09m
Length of Day
15h 03m
Waning Gibbous, 73% of the Moon is Illuminated
Jun 17
Waning Gibbous
Jun 19
Last Quarter
Jun 27
New
Jul 5
First Quarter
Jul 12
Full

Hourly Weather History & Observations

Time (EDT) Temp. Heat Index Dew Point Humidity Pressure Visibility Wind Dir Wind Speed Gust Speed Precip Events Conditions
12:54 AM 72.0 °F - 68.0 °F 87% 30.06 in 10.0 mi Calm Calm - 0.02 in Rain Light Rain
1:54 AM 73.0 °F - 66.9 °F 81% 30.05 in 10.0 mi Calm Calm - 0.00 in   Clear
2:54 AM 70.0 °F - 66.9 °F 90% 30.05 in 3.0 mi Calm Calm - N/A   Mostly Cloudy
3:54 AM 70.0 °F - 66.9 °F 90% 30.04 in 7.0 mi Calm Calm - N/A   Clear
4:54 AM 69.1 °F - 66.0 °F 90% 30.04 in 4.0 mi Calm Calm - N/A   Clear
5:12 AM 69.1 °F - 66.9 °F 93% 30.04 in 2.5 mi Calm Calm - N/A   Clear
5:31 AM 70.0 °F - 66.9 °F 90% 30.04 in 3.0 mi Calm Calm - N/A   Clear
5:54 AM 69.1 °F - 66.0 °F 90% 30.06 in 4.0 mi Calm Calm - N/A   Scattered Clouds
6:54 AM 70.0 °F - 66.9 °F 90% 30.08 in 5.0 mi Calm Calm - N/A   Clear
7:54 AM 75.0 °F - 69.1 °F 82% 30.09 in 5.0 mi Calm Calm - N/A   Clear
8:54 AM 80.1 °F 83.2 °F 70.0 °F 71% 30.09 in 6.0 mi West 5.8 mph - N/A   Partly Cloudy
9:54 AM 82.0 °F 85.9 °F 70.0 °F 67% 30.09 in 6.0 mi West 4.6 mph - N/A   Partly Cloudy
10:54 AM 84.0 °F 88.4 °F 70.0 °F 63% 30.08 in 10.0 mi Calm Calm - N/A   Clear
11:54 AM 86.0 °F 90.7 °F 70.0 °F 59% 30.06 in 10.0 mi Variable 3.5 mph - N/A   Partly Cloudy
12:54 PM 88.0 °F 90.7 °F 66.9 °F 49% 30.06 in 10.0 mi West 8.1 mph - N/A   Scattered Clouds
1:54 PM 90.0 °F 92.8 °F 66.9 °F 46% 30.04 in 10.0 mi Variable 5.8 mph - N/A   Partly Cloudy
2:54 PM 90.0 °F 92.8 °F 66.9 °F 46% 30.02 in 10.0 mi West 6.9 mph - N/A   Clear
3:54 PM 91.0 °F 93.0 °F 64.9 °F 42% 29.99 in 10.0 mi Variable 3.5 mph - N/A   Partly Cloudy
4:54 PM 91.0 °F 94.3 °F 66.9 °F 45% 29.98 in 10.0 mi WSW 10.4 mph - N/A   Partly Cloudy
5:54 PM 90.0 °F 92.4 °F 66.0 °F 45% 29.96 in 10.0 mi South 9.2 mph - N/A   Partly Cloudy
6:54 PM 88.0 °F 90.7 °F 66.9 °F 49% 29.95 in 10.0 mi SSW 10.4 mph - N/A   Clear
7:54 PM 87.1 °F 89.9 °F 66.9 °F 51% 29.93 in 10.0 mi SSW 8.1 mph - N/A   Clear
8:54 PM 84.9 °F 88.2 °F 68.0 °F 57% 29.94 in 10.0 mi SSW 6.9 mph - N/A   Clear
9:54 PM 84.0 °F 87.8 °F 69.1 °F 61% 29.93 in 10.0 mi SSW 10.4 mph - N/A   Clear
10:54 PM 82.9 °F 86.5 °F 69.1 °F 63% 29.92 in 10.0 mi SSW 9.2 mph - N/A   Clear
11:54 PM 82.0 °F 85.5 °F 69.1 °F 65% 29.91 in 10.0 mi SSW 10.4 mph - N/A   Partly Cloudy